Lord Howe Island Observation History
Time Wind Speed Temp Pressure Rel. Hum Rain
14/10:00am WSW 15-17 kts 21.8°c 1009.1 hPa 93% 0.0mm
14/09:30am WSW 14-18 kts 21.6°c 1009.2 hPa 90% 0.0mm
14/09:00am WSW 15-19 kts 21.5°c 1009.0 hPa 89% 0.0mm
14/08:30am WSW 14-18 kts 21.3°c 1008.9 hPa 87% 5.8mm
14/08:00am WSW 14-19 kts 20.5°c 1008.6 hPa 99% 5.8mm
14/07:30am WSW 19-25 kts 20.5°c 1008.3 hPa 96% 5.8mm
14/07:00am WSW 17-21 kts 20.7°c 1008.0 hPa 98% 5.8mm
14/06:30am WSW 14-18 kts 20.5°c 1007.8 hPa 98% 5.8mm
14/06:00am SW 11-16 kts 20.3°c 1007.6 hPa 99% 5.8mm
14/05:30am WSW 11-18 kts 19.1°c 1007.5 hPa 99% 5.8mm
14/05:00am WSW 13-18 kts 20.6°c 1007.2 hPa 97% 5.2mm
14/04:30am WSW 15-19 kts 20.5°c 1007.0 hPa 99% 5.2mm
14/04:00am WSW 15-19 kts 20.5°c 1006.9 hPa 98% 5.2mm
14/03:30am WSW 15-20 kts 20.6°c 1006.8 hPa 99% 5.2mm
14/03:00am WSW 15-20 kts 20.4°c 1006.7 hPa 99% 5.2mm
14/02:30am WSW 15-19 kts 20.5°c 1006.8 hPa 100% 5.2mm
14/02:00am WSW 15-19 kts 20.4°c 1006.9 hPa 99% 5.2mm
14/01:30am WSW 14-19 kts 20.5°c 1007.0 hPa 100% 5.2mm
14/01:00am WSW 14-20 kts 20.5°c 1007.2 hPa 100% 5.2mm
14/12:40am WSW 13-17 kts 20.5°c 1007.3 hPa 100% 5.2mm
14/12:30am WSW 13-17 kts 20.5°c 1007.4 hPa 100% 5.2mm
14/12:08am WSW 15-22 kts 20.5°c 1007.5 hPa 100% 5.2mm
14/12:00am WSW 13-18 kts 20.6°c 1007.5 hPa 100% 5.2mm
Time Wind Speed Temp Pressure Rel. Hum Rain
13/11:30pm WSW 14-21 kts 20.6°c 1007.6 hPa 99% 5.2mm
13/11:00pm WSW 14-18 kts 20.7°c 1007.7 hPa 100% 5.2mm
13/10:30pm WSW 15-20 kts 20.5°c 1007.6 hPa 100% 5.2mm
13/10:26pm WSW 16-22 kts 20.6°c 1007.6 hPa 100% 5.2mm
13/10:05pm WSW 14-21 kts 20.5°c 1007.9 hPa 100% 5.2mm
13/10:00pm WSW 16-21 kts 20.5°c 1007.8 hPa 100% 5.2mm
13/09:30pm WSW 17-21 kts 20.6°c 1008.1 hPa 100% 5.2mm
13/09:00pm WSW 15-18 kts 20.7°c 1007.9 hPa 100% 5.2mm
13/08:30pm W 14-18 kts 20.5°c 1008.1 hPa 100% 5.2mm
13/08:00pm WSW 14-17 kts 20.6°c 1008.0 hPa 100% 5.2mm
13/07:30pm WSW 10-13 kts 20.4°c 1007.9 hPa 100% 5.2mm
13/07:16pm WSW 9-12 kts 20.4°c 1007.7 hPa 100% 5.2mm
13/07:00pm W 10-14 kts 20.0°c 1008.2 hPa 100% 5.2mm
13/06:30pm W 4-6 kts 18.8°c 1007.9 hPa 100% 5.2mm
13/06:16pm CALM 0 kts 18.4°c 1007.8 hPa 100% 5.2mm
13/06:00pm CALM 0-3 kts 18.5°c 1007.6 hPa 100% 5.2mm
13/05:30pm WSW 4-5 kts 18.4°c 1007.5 hPa 100% 5.2mm
13/05:10pm NW 2-4 kts 19.0°c 1007.7 hPa 100% 5.2mm
13/05:00pm NNW 2-5 kts 19.1°c 1007.8 hPa 100% 5.2mm
13/04:40pm N 2-4 kts 19.3°c 1007.8 hPa 100% 5.2mm
13/04:30pm NW 4-5 kts 19.4°c 1007.8 hPa 100% 5.2mm
13/04:14pm WNW 4-6 kts 19.8°c 1007.6 hPa 100% 5.2mm
13/04:00pm NW 5-8 kts 20.2°c 1007.5 hPa 100% 5.2mm
13/03:30pm NE 9-12 kts 20.7°c 1007.6 hPa 100% 5.2mm
13/03:00pm NNE 6-9 kts 21.0°c 1007.5 hPa 100% 5.2mm
13/02:30pm NNE 6-10 kts 20.5°c 1007.5 hPa 100% 5.2mm
13/02:23pm NNE 8-11 kts 20.4°c 1007.6 hPa 100% 5.0mm
13/02:16pm NE 11-15 kts 20.4°c 1007.3 hPa 100% 5.0mm
13/02:14pm ENE 11-15 kts 20.3°c 1007.3 hPa 100% 5.0mm
13/02:00pm ENE 14-19 kts 20.2°c 1007.2 hPa 100% 5.0mm
13/01:44pm NE 10-14 kts 20.7°c 1008.0 hPa 100% 1.6mm
13/01:42pm NE 11-16 kts 20.9°c 1008.0 hPa 100% 1.0mm
13/01:30pm NE 14-19 kts 21.2°c 1007.7 hPa 100% 0.8mm
13/01:12pm ENE 17-20 kts 21.1°c 1007.9 hPa 100% 0.8mm
13/01:00pm NE 18-23 kts 21.0°c 1007.9 hPa 100% 0.8mm
13/12:51pm NE 19-25 kts 21.1°c 1008.1 hPa 100% 0.8mm
13/12:30pm NE 19-24 kts 21.6°c 1008.1 hPa 100% 0.8mm
13/12:28pm NE 20-24 kts 21.2°c 1008.1 hPa 100% 0.6mm
13/12:10pm NE 18-22 kts 21.5°c 1008.5 hPa 100% 0.6mm
13/12:00pm NE 19-24 kts 21.4°c 1008.7 hPa 100% 0.6mm
13/11:30am NE 19-25 kts 21.3°c 1009.4 hPa 100% 0.6mm
13/11:19am NE 21-25 kts 21.5°c 1009.7 hPa 100% 0.6mm
13/11:00am NE 22-27 kts 21.5°c 1010.1 hPa 100% 0.6mm
13/10:58am NE 22-28 kts 21.6°c 1010.1 hPa 100% 0.6mm
13/10:30am NE 23-30 kts 21.2°c 1010.6 hPa 100% 0.6mm
13/10:27am NE 23-30 kts 21.1°c 1010.6 hPa 100% 0.6mm
13/10:08am NE 24-31 kts 21.1°c 1010.9 hPa 100% 0.6mm
13/10:00am NE 23-29 kts 21.0°c 1011.1 hPa 100% 0.6mm
13/09:35am NE 24-34 kts 21.0°c 1011.3 hPa 100% 0.4mm
13/09:30am ENE 23-28 kts 21.2°c 1011.3 hPa 100% 0.4mm
13/09:00am NE 25-34 kts 21.5°c 1011.8 hPa 100% 0.2mm
13/08:58am NE 24-34 kts 21.6°c 1011.8 hPa 100% 0.2mm
13/08:30am ENE 25-32 kts 21.5°c 1012.1 hPa 100% 19.2mm
13/08:00am ENE 23-31 kts 21.3°c 1012.1 hPa 100% 19.2mm
13/07:52am ENE 21-27 kts 21.0°c 1012.1 hPa 100% 19.2mm
13/07:45am ENE 23-30 kts 20.8°c 1012.3 hPa 100% 19.2mm
13/07:30am ENE 25-32 kts 21.0°c 1012.4 hPa 100% 19.2mm
13/07:29am ENE 25-32 kts 20.9°c 1012.4 hPa 100% 19.2mm
13/07:26am ENE 25-32 kts 21.0°c 1012.4 hPa 100% 19.0mm
13/07:21am ENE 26-34 kts 21.1°c 1012.3 hPa 100% 19.0mm
13/07:18am ENE 26-34 kts 21.2°c 1012.3 hPa 100% 19.0mm
13/07:00am ENE 26-36 kts 20.7°c 1012.2 hPa 100% 18.8mm
13/06:59am ENE 25-36 kts 20.8°c 1012.2 hPa 100% 18.8mm
13/06:45am ENE 23-30 kts 20.7°c 1012.5 hPa 100% 18.2mm
13/06:34am ENE 24-31 kts 20.7°c 1012.5 hPa 100% 17.8mm
13/06:30am ENE 24-31 kts 20.7°c 1012.6 hPa 100% 17.8mm
13/06:03am NE 23-30 kts 20.5°c 1012.8 hPa 100% 17.4mm
13/06:01am NE 23-30 kts 20.4°c 1012.8 hPa 100% 17.4mm
13/06:00am NE 24-30 kts 20.5°c 1012.8 hPa 100% 17.4mm
13/05:31am ENE 23-30 kts 20.7°c 1012.5 hPa 100% 17.4mm
13/05:30am ENE 24-30 kts 20.6°c 1012.5 hPa 100% 17.4mm
13/05:14am ENE 25-32 kts 20.4°c 1012.9 hPa 100% 17.4mm
13/05:02am NE 25-32 kts 20.3°c 1013.3 hPa 100% 17.0mm
13/05:00am NE 25-32 kts 20.1°c 1013.3 hPa 100% 17.0mm
13/04:53am NE 28-38 kts 19.4°c 1013.4 hPa 100% 17.0mm
13/04:45am NE 29-38 kts 19.9°c 1013.5 hPa 100% 16.8mm
13/04:41am ENE 28-38 kts 20.7°c 1013.3 hPa 100% 16.6mm
13/04:33am ENE 28-37 kts 20.9°c 1013.3 hPa 100% 16.6mm
13/04:30am ENE 27-37 kts 21.0°c 1013.3 hPa 100% 16.4mm
13/04:27am ENE 27-37 kts 20.9°c 1013.3 hPa 100% 16.4mm
13/04:20am ENE 26-35 kts 21.0°c 1013.3 hPa 100% 16.2mm
13/04:17am ENE 25-35 kts 21.0°c 1013.4 hPa 100% 16.2mm
13/04:01am ENE 26-34 kts 20.7°c 1013.8 hPa 100% 15.4mm
13/04:00am ENE 26-34 kts 20.6°c 1013.8 hPa 100% 15.2mm
13/03:38am ENE 25-31 kts 21.3°c 1013.9 hPa 100% 14.8mm
13/03:34am ENE 24-31 kts 21.4°c 1014.0 hPa 100% 14.8mm
13/03:30am ENE 24-30 kts 21.3°c 1014.0 hPa 100% 14.8mm
13/03:27am ENE 24-31 kts 21.4°c 1014.1 hPa 100% 14.8mm
13/03:00am ENE 24-32 kts 21.6°c 1014.3 hPa 100% 14.8mm
13/02:45am ENE 23-33 kts 21.6°c 1014.5 hPa 100% 14.8mm
13/02:30am ENE 20-28 kts 21.6°c 1014.7 hPa 100% 14.8mm
13/02:00am ENE 20-27 kts 21.6°c 1015.0 hPa 100% 14.6mm
13/01:54am ENE 19-25 kts 21.5°c 1015.1 hPa 100% 14.6mm
13/01:50am ENE 19-25 kts 21.5°c 1015.1 hPa 100% 14.6mm
13/01:30am ENE 21-28 kts 21.6°c 1015.5 hPa 100% 14.6mm
13/01:13am ENE 20-28 kts 21.6°c 1015.7 hPa 100% 14.6mm
13/01:00am ENE 21-27 kts 21.6°c 1015.8 hPa 100% 14.6mm
13/12:30am ENE 19-24 kts 21.6°c 1016.2 hPa 100% 14.6mm
13/12:00am ENE 17-22 kts 21.3°c 1016.6 hPa 100% 14.6mm
Time Wind Speed Temp Pressure Rel. Hum Rain
12/11:36pm E 19-25 kts 21.1°c 1017.0 hPa 100% 14.6mm
12/11:30pm E 19-25 kts 21.1°c 1017.1 hPa 100% 14.6mm
12/11:18pm E 18-23 kts 21.0°c 1017.3 hPa 100% 14.6mm
12/11:00pm E 15-20 kts 20.9°c 1017.5 hPa 100% 14.6mm
12/10:47pm E 15-19 kts 20.8°c 1017.8 hPa 100% 14.6mm
12/10:30pm E 17-21 kts 20.2°c 1017.8 hPa 100% 14.4mm
12/10:24pm E 14-21 kts 20.4°c 1018.0 hPa 100% 13.4mm
12/10:10pm ESE 13-21 kts 20.1°c 1018.2 hPa 100% 13.4mm
12/10:00pm E 10-18 kts 19.9°c 1018.4 hPa 100% 13.4mm
12/09:50pm ESE 8-13 kts 19.3°c 1018.7 hPa 100% 13.0mm
12/09:39pm E 12-15 kts 19.4°c 1018.9 hPa 100% 13.0mm
12/09:30pm E 10-15 kts 19.5°c 1019.1 hPa 100% 13.0mm
12/09:27pm E 10-13 kts 19.5°c 1019.1 hPa 100% 13.0mm
12/09:00pm ENE 11-17 kts 19.1°c 1019.7 hPa 100% 11.0mm
12/08:45pm ENE 16-22 kts 20.3°c 1019.7 hPa 100% 10.2mm
12/08:30pm ENE 15-18 kts 20.6°c 1019.5 hPa 100% 9.4mm
12/08:00pm ENE 19-24 kts 20.3°c 1019.6 hPa 100% 9.0mm
12/07:46pm ENE 15-24 kts 20.8°c 1019.6 hPa 100% 9.0mm
12/07:30pm E 15-20 kts 20.8°c 1019.7 hPa 100% 8.8mm
12/07:27pm E 16-21 kts 20.7°c 1019.7 hPa 100% 8.6mm
12/07:10pm E 18-23 kts 20.9°c 1019.2 hPa 100% 7.8mm
12/07:00pm E 18-23 kts 20.9°c 1019.1 hPa 100% 7.6mm
12/06:30pm ENE 17-23 kts 21.0°c 1019.4 hPa 100% 7.4mm
12/06:04pm E 16-21 kts 21.4°c 1019.7 hPa 100% 7.4mm
12/06:00pm E 17-23 kts 21.4°c 1019.6 hPa 100% 7.4mm
12/05:48pm E 16-21 kts 21.1°c 1019.3 hPa 100% 7.4mm
12/05:45pm E 17-21 kts 21.0°c 1019.3 hPa 100% 7.2mm
12/05:30pm E 16-20 kts 21.3°c 1019.2 hPa 100% 6.4mm
12/05:08pm ENE 15-20 kts 21.4°c 1019.0 hPa 100% 6.4mm
12/05:00pm ENE 15-20 kts 21.4°c 1019.0 hPa 100% 6.4mm
12/04:42pm ENE 11-16 kts 21.4°c 1019.0 hPa 100% 6.4mm
12/04:30pm E 13-16 kts 21.0°c 1018.9 hPa 100% 6.4mm
12/04:15pm E 13-16 kts 20.1°c 1019.0 hPa 100% 6.4mm
12/04:14pm E 13-16 kts 20.1°c 1019.0 hPa 100% 6.4mm
12/04:00pm ENE 15-25 kts 19.8°c 1019.3 hPa 100% 6.4mm
12/03:51pm NE 15-25 kts 19.9°c 1019.2 hPa 100% 3.4mm
12/03:47pm ENE 13-18 kts 20.3°c 1018.8 hPa 100% 2.2mm
12/03:30pm ENE 14-20 kts 21.6°c 1018.7 hPa 100% 1.6mm
12/03:00pm ENE 17-22 kts 21.5°c 1018.4 hPa 100% 1.6mm
12/02:30pm ENE 16-20 kts 21.5°c 1018.8 hPa 100% 1.6mm
12/02:00pm ENE 15-21 kts 21.7°c 1018.2 hPa 100% 1.6mm
12/01:30pm ENE 15-19 kts 21.8°c 1018.6 hPa 100% 1.6mm
12/01:00pm E 15-19 kts 21.6°c 1018.9 hPa 100% 1.6mm
12/12:52pm E 17-20 kts 21.5°c 1018.9 hPa 100% 1.6mm
12/12:38pm E 15-19 kts 21.4°c 1019.0 hPa 100% 1.6mm
12/12:30pm E 15-21 kts 21.5°c 1019.1 hPa 100% 1.4mm
12/12:27pm E 14-21 kts 21.4°c 1019.1 hPa 100% 1.4mm
12/12:09pm E 15-21 kts 20.7°c 1019.3 hPa 100% 1.2mm
12/12:00pm E 15-19 kts 21.8°c 1019.3 hPa 100% 0.0mm
12/11:30am E 15-17 kts 22.6°c 1020.0 hPa 100% 0.0mm
12/11:00am E 16-20 kts 22.1°c 1020.3 hPa 100% 0.0mm
12/10:50am E 15-18 kts 22.3°c 1020.3 hPa 100% 0.0mm
12/10:30am E 15-18 kts 22.3°c 1020.6 hPa 100% 0.0mm
12/10:25am E 15-19 kts 22.3°c 1020.6 hPa 100% 0.0mm
12/10:00am E 13-15 kts 22.4°c 1020.9 hPa 100% 0.0mm
12/09:48am E 11-15 kts 22.1°c 1021.2 hPa 100% 0.0mm
12/09:39am E 11-15 kts 22.2°c 1021.2 hPa 100% 0.0mm
12/09:30am E 12-15 kts 22.1°c 1021.2 hPa 100% 0.0mm
12/09:07am E 11-13 kts 22.2°c 1021.3 hPa 100% 0.0mm
12/09:00am E 11-14 kts 22.2°c 1021.4 hPa 100% 0.0mm
12/08:30am E 12-14 kts 22.4°c 1021.4 hPa 100% 0.0mm
12/08:29am E 12-14 kts 22.4°c 1021.4 hPa 100% 0.0mm
12/08:00am E 12-17 kts 22.0°c 1020.8 hPa 100% 0.0mm
12/07:55am E 13-17 kts 22.0°c 1020.8 hPa 100% 0.0mm
12/07:30am E 13-16 kts 22.1°c 1020.6 hPa 100% 0.0mm
12/07:16am E 12-14 kts 21.9°c 1020.8 hPa 100% 0.0mm
12/07:00am E 11-14 kts 21.8°c 1020.7 hPa 100% 0.0mm
12/06:30am E 10-13 kts 21.6°c 1020.2 hPa 100% 0.0mm
12/06:00am E 10-13 kts 21.4°c 1020.1 hPa 100% 0.0mm
12/05:53am ENE 11-13 kts 21.4°c 1020.0 hPa 100% 0.0mm
12/05:30am ENE 10-13 kts 21.3°c 1019.8 hPa 100% 0.0mm
12/05:11am E 8-11 kts 21.3°c 1019.7 hPa 100% 0.0mm
12/05:00am ENE 11-13 kts 21.3°c 1019.4 hPa 100% 0.0mm
12/04:30am ENE 11-13 kts 21.1°c 1019.2 hPa 100% 0.0mm
12/04:00am ENE 9-13 kts 21.2°c 1019.4 hPa 100% 0.0mm
12/03:30am ENE 9-10 kts 21.1°c 1019.5 hPa 100% 0.0mm
12/03:17am ENE 9-10 kts 21.0°c 1019.7 hPa 100% 0.0mm
12/03:00am ENE 8-10 kts 21.1°c 1019.7 hPa 100% 0.0mm
12/02:54am E 9-11 kts 21.1°c 1019.7 hPa 100% 0.0mm
12/02:46am E 9-12 kts 21.0°c 1019.6 hPa 100% 0.0mm
12/02:30am E 10-13 kts 21.1°c 1019.4 hPa 100% 0.0mm
12/02:26am E 11-13 kts 21.1°c 1019.4 hPa 100% 0.0mm
12/02:22am E 11-13 kts 21.0°c 1019.3 hPa 100% 0.0mm
12/02:05am E 11-13 kts 20.9°c 1019.2 hPa 100% 0.0mm
12/02:00am E 12-14 kts 20.9°c 1019.3 hPa 100% 0.0mm
12/01:30am E 11-14 kts 20.7°c 1019.8 hPa 100% 0.0mm
12/01:00am ESE 6-9 kts 20.6°c 1020.4 hPa 100% 0.0mm
12/12:30am SE 5-8 kts 20.7°c 1020.5 hPa 100% 0.0mm
12/12:00am SE 6-9 kts 20.6°c 1020.8 hPa 100% 0.0mm